FW2904 Weather Reports


Display with metric or nautical units.
time (UTC)temp
F
wind
direction
speed
MPH
gust
MPH
rain 1hr
in
rain 24hr
in
rain mn
in
humidity
%
barometer
mb
20260504184913 60 46 6.0 18.0 0.00 0.00 0.00 37 1016.6
20260504184413 60 51 5.0 17.0 0.00 0.00 0.00 39 1016.6
20260504183915 60 42 4.0 14.0 0.00 0.00 0.00 37 1016.6
20260504183419 60 64 6.0 15.0 0.00 0.00 0.00 39 1016.9
20260504183413 60 64 5.0 15.0 0.00 0.00 0.00 38 1016.8
20260504182413 60 98 6.0 11.0 0.00 0.00 0.00 38 1016.8
20260504181913 60 107 7.0 12.0 0.00 0.00 0.00 38 1016.9
20260504181415 60 111 6.0 12.0 0.00 0.00 0.00 38 1016.9
20260504180913 59 108 6.0 14.0 0.00 0.00 0.00 39 1017.1
20260504180415 59 100 7.0 16.0 0.00 0.00 0.00 39 1017.1
20260504175918 58 87 6.0 11.0 0.00 0.00 0.00 42 1017.3
20260504175912 59 97 6.0 16.0 0.00 0.00 0.00 40 1017.2
20260504174911 57 82 6.0 12.0 0.00 0.00 0.00 43 1017.3
20260504174418 57 89 6.0 13.0 0.00 0.00 0.00 41 1017.4
20260504174412 57 81 5.0 12.0 0.00 0.00 0.00 40 1017.4
20260504173410 56 86 7.0 13.0 0.00 0.00 0.00 44 1017.4
20260504172912 56 96 5.0 11.0 0.00 0.00 0.00 43 1017.4
20260504172411 56 83 5.0 12.0 0.00 0.00 0.00 43 1017.4
20260504171911 56 84 5.0 12.0 0.00 0.00 0.00 43 1017.4
20260504171410 56 69 6.0 13.0 0.00 0.00 0.00 43 1017.5
20260504170910 56 39 7.0 13.0 0.00 0.00 0.00 42 1017.5
20260504170409 56 67 6.0 12.0 0.00 0.00 0.00 43 1017.5
20260504160406 52 37 6.0 13.0 0.00 0.00 0.00 47 1018.0
20260504150908 51 52 9.0 20.0 0.00 0.00 0.00 49 1017.8
20260504150406 51 53 9.0 19.0 0.00 0.00 0.00 50 1017.9
20260504140909 50 39 8.0 17.0 0.00 0.00 0.00 52 1016.6
20260504140406 51 30 9.0 21.0 0.00 0.00 0.00 51 1016.2
20260504110348 40 47 1.0 5.0 0.00 0.00 0.00 67 1013.3
20260504100344 40 49 0.0 1.0 0.00 0.00 0.00 66 1013.3
20260504081846 40 49 0.0 1.0 0.00 0.00 0.00 67 1013.9
20260504081840 40 49 0.0 1.0 0.00 0.00 0.00 68 1013.8
20260504081510 40 49 0.0 0.0 0.00 0.00 0.00 66 1013.9
20260504080340 40 49 0.0 2.0 0.00 0.00 0.00 66 1014.0
20260504070335 41 49 0.0 2.0 0.00 0.00 0.00 65 1014.2
20260504050330 48 49 1.0 4.0 0.00 0.00 0.00 53 1015.0
20260504045828 48 49 0.0 4.0 0.00 0.00 0.00 53 1015.0
20260504045330 48 49 0.0 3.0 0.00 0.00 0.00 52 1015.1
20260504044830 49 49 0.0 3.0 0.00 0.00 0.00 53 1015.1
20260504044334 50 49 1.0 3.0 0.00 0.00 0.00 51 1015.1
20260504044330 50 49 0.0 1.0 0.00 0.00 0.00 51 1015.1
20260504043330 50 49 2.0 3.0 0.00 0.00 0.00 51 1015.2
20260504042829 51 49 2.0 4.0 0.00 0.00 0.00 51 1015.2
20260504042501 51 49 2.0 3.0 0.00 0.00 0.00 50 1015.3
20260504042327 51 49 2.0 5.0 0.00 0.00 0.00 51 1015.2
20260504041832 51 49 2.0 3.0 0.00 0.00 0.00 51 1015.3
20260504041826 51 49 2.0 5.0 0.00 0.00 0.00 51 1015.3
20260504040328 51 49 2.0 3.0 0.00 0.00 0.00 50 1015.3
20260504035826 52 49 1.0 2.0 0.00 0.00 0.00 49 1015.3
20260504035330 52 49 1.0 3.0 0.00 0.00 0.00 48 1015.3
20260504034835 54 49 2.0 4.0 0.00 0.00 0.00 46 1015.3
20260504034826 53 49 1.0 3.0 0.00 0.00 0.00 47 1015.3
20260504034326 53 49 1.0 3.0 0.00 0.00 0.00 46 1015.3
20260504033326 54 49 3.0 5.0 0.00 0.00 0.00 45 1015.3
20260504032825 54 49 4.0 6.0 0.00 0.00 0.00 45 1015.3
20260504032324 55 49 3.0 6.0 0.00 0.00 0.00 45 1015.2
20260504031831 55 49 3.0 6.0 0.00 0.00 0.00 44 1015.1
20260504031826 55 49 3.0 5.0 0.00 0.00 0.00 44 1015.2
20260504030824 55 49 3.0 6.0 0.00 0.00 0.00 43 1015.1
20260504030326 55 49 3.0 4.0 0.00 0.00 0.00 43 1015.2
20260504025833 56 49 2.0 5.0 0.00 0.00 0.00 42 1015.3
20260504025826 55 49 3.0 4.0 0.00 0.00 0.00 43 1015.2
20260504025456 56 49 2.0 5.0 0.00 0.00 0.00 42 1015.3
20260504024323 56 49 2.0 4.0 0.00 0.00 0.00 42 1015.3
20260504023821 56 49 2.0 4.0 0.00 0.00 0.00 41 1015.2
20260504023321 57 49 2.0 4.0 0.00 0.00 0.00 40 1015.2
20260504022823 58 49 2.0 4.0 0.00 0.00 0.00 39 1015.2
20260504022323 58 49 2.0 4.0 0.00 0.00 0.00 38 1015.1
20260504021822 59 49 2.0 4.0 0.00 0.00 0.00 37 1015.2
20260504021328 60 49 2.0 3.0 0.00 0.00 0.00 34 1015.2
20260504021322 59 49 2.0 3.0 0.00 0.00 0.00 35 1015.2
20260504020322 61 49 2.0 3.0 0.00 0.00 0.00 33 1015.1
20260504015823 61 49 2.0 3.0 0.00 0.00 0.00 31 1015.1
20260504015322 62 49 2.0 4.0 0.00 0.00 0.00 31 1015.1
20260504014822 63 49 2.0 4.0 0.00 0.00 0.00 30 1015.1
20260504014320 63 49 3.0 5.0 0.00 0.00 0.00 29 1015.1
20260504013820 64 49 2.0 5.0 0.00 0.00 0.00 29 1015.1
20260504013322 64 49 3.0 5.0 0.00 0.00 0.00 29 1015.1
20260504012825 65 49 3.0 7.0 0.00 0.00 0.00 27 1015.1
20260504012819 65 49 3.0 7.0 0.00 0.00 0.00 28 1015.0
20260504011817 66 49 4.0 7.0 0.00 0.00 0.00 26 1015.1
20260504011322 67 48 4.0 7.0 0.00 0.00 0.00 26 1015.1
20260504010823 67 48 4.0 10.0 0.00 0.00 0.00 26 1015.1
20260504010817 67 48 4.0 10.0 0.00 0.00 0.00 26 1015.1
20260504005818 68 46 4.0 10.0 0.00 0.00 0.00 25 1015.2
20260504005316 68 46 4.0 10.0 0.00 0.00 0.00 25 1015.2
20260504004818 69 45 4.0 10.0 0.00 0.00 0.00 24 1015.2
20260504004316 69 44 4.0 11.0 0.00 0.00 0.00 24 1015.2
20260504003814 69 44 4.0 11.0 0.00 0.00 0.00 24 1015.2
20260504003314 70 41 3.0 7.0 0.00 0.00 0.00 24 1015.2
20260504002820 70 37 2.0 9.0 0.00 0.00 0.00 25 1015.3
20260504002816 70 38 3.0 9.0 0.00 0.00 0.00 24 1015.3
20260504002446 69 35 2.0 5.0 0.00 0.00 0.00 26 1015.4
20260504001816 69 35 2.0 5.0 0.00 0.00 0.00 23 1015.4
20260504001445 68 35 4.0 13.0 0.00 0.00 0.00 25 1015.4
20260504000948 68 35 6.0 13.0 0.00 0.00 0.00 23 1015.5
20260503235812 68 22 5.0 13.0 0.00 0.00 0.00 24 1015.5
20260503235314 69 49 3.0 7.0 0.00 0.00 0.00 23 1015.7
20260503234814 68 50 2.0 6.0 0.00 0.00 0.00 24 1015.7
20260503234311 68 50 2.0 5.0 0.00 0.00 0.00 24 1015.7
20260503233811 68 50 4.0 10.0 0.00 0.00 0.00 24 1015.7
20260503233311 68 50 5.0 12.0 0.00 0.00 0.00 22 1015.7
20260503232810 68 46 5.0 12.0 0.00 0.00 0.00 22 1015.7
20260503232309 67 46 6.0 14.0 0.00 0.00 0.00 24 1015.8
20260503231815 66 17 4.0 10.0 0.00 0.00 0.00 22 1015.9
20260503231807 67 43 5.0 14.0 0.00 0.00 0.00 24 1015.8
20260503230811 66 20 5.0 17.0 0.00 0.00 0.00 24 1016.0
20260503230309 66 83 5.0 17.0 0.00 0.00 0.00 30 1016.1
20260503225811 67 88 5.0 12.0 0.00 0.00 0.00 29 1016.1
20260503225310 67 89 7.0 12.0 0.00 0.00 0.00 29 1016.1
20260503224816 68 74 4.0 10.0 0.00 0.00 0.00 29 1016.1
20260503224810 68 85 6.0 11.0 0.00 0.00 0.00 29 1016.1
20260503223807 67 0 3.0 8.0 0.00 0.00 0.00 29 1016.1
20260503223314 66 355 3.0 8.0 0.00 0.00 0.00 28 1016.4
20260503223309 67 0 2.0 8.0 0.00 0.00 0.00 28 1016.2
20260503222309 67 355 5.0 11.0 0.00 0.00 0.00 27 1016.5
20260503221808 67 355 6.0 15.0 0.00 0.00 0.00 27 1016.7
20260503221314 69 26 9.0 16.0 0.00 0.00 0.00 26 1016.1
20260503221310 68 53 7.0 16.0 0.00 0.00 0.00 27 1016.2
20260503220313 69 288 8.0 21.0 0.00 0.00 0.00 19 1016.0
20260503220307 70 285 8.0 16.0 0.00 0.00 0.00 18 1015.9
20260503215942 67 315 13.0 34.0 0.00 0.00 0.00 19 1016.2
20260503214809 67 28 12.0 34.0 0.00 0.00 0.00 20 1016.5
20260503214313 67 293 4.0 11.0 0.00 0.00 0.00 22 1016.4
20260503214309 68 344 6.0 29.0 0.00 0.00 0.00 20 1016.2
20260503213310 67 306 6.0 15.0 0.00 0.00 0.00 22 1016.6
20260503212810 67 309 11.0 31.0 0.00 0.00 0.00 22 1016.6
20260503212314 67 329 8.0 15.0 0.00 0.00 0.00 23 1016.7
20260503212308 67 307 12.0 31.0 0.00 0.00 0.00 21 1016.9
20260503211314 66 343 10.0 27.0 0.00 0.00 0.00 24 1016.9
20260503211310 66 347 8.0 16.0 0.00 0.00 0.00 24 1016.8
20260503210807 66 22 10.0 27.0 0.00 0.00 0.00 25 1016.8
20260503205807 68 342 8.0 23.0 0.00 0.00 0.00 22 1016.9
20260503205307 69 325 7.0 16.0 0.00 0.00 0.00 21 1016.7
20260503204809 68 0 9.0 31.0 0.00 0.00 0.00 22 1016.8
20260503204309 67 324 10.0 31.0 0.00 0.00 0.00 22 1016.9
20260503203806 68 12 7.0 15.0 0.00 0.00 0.00 21 1017.1
20260503203311 71 330 9.0 19.0 0.00 0.00 0.00 20 1016.9
20260503203305 69 343 8.0 19.0 0.00 0.00 0.00 21 1016.9
20260503202940 73 337 7.0 18.0 0.00 0.00 0.00 19 1017.1
20260503201813 73 300 9.0 19.0 0.00 0.00 0.00 20 1017.2
20260503201805 73 286 7.0 17.0 0.00 0.00 0.00 20 1016.9
20260503201306 72 281 8.0 17.0 0.00 0.00 0.00 19 1016.9
20260503200305 72 279 9.0 19.0 0.00 0.00 0.00 20 1017.1
20260503195806 72 293 7.0 16.0 0.00 0.00 0.00 21 1017.2
20260503195305 71 277 6.0 14.0 0.00 0.00 0.00 22 1017.2
20260503194807 70 279 5.0 13.0 0.00 0.00 0.00 23 1017.3
20260503194306 69 277 5.0 16.0 0.00 0.00 0.00 24 1017.4
20260503193805 69 278 6.0 16.0 0.00 0.00 0.00 24 1017.5
20260503193307 70 277 6.0 14.0 0.00 0.00 0.00 24 1017.6
20260503192805 70 278 4.0 13.0 0.00 0.00 0.00 24 1017.8
20260503192305 69 275 3.0 11.0 0.00 0.00 0.00 26 1017.9
20260503191807 69 275 5.0 13.0 0.00 0.00 0.00 26 1018.1
20260503191305 69 274 5.0 13.0 0.00 0.00 0.00 25 1018.2
20260503190805 68 268 4.0 8.0 0.00 0.00 0.00 28 1018.3
20260503190305 68 268 4.0 11.0 0.00 0.00 0.00 27 1018.5
20260503185805 68 268 5.0 11.0 0.00 0.00 0.00 28 1018.6